Sioux City, IA

8:28 PM CST on November 19, 2019 (GMT -0600)
Sioux Gateway

Weather History for KSUX - September, 2019

Change the Weather History Date:

Thursday, September 19, 2019

  Actual Average Record
Temperature  
Mean Temperature 73 °F 62 °F  
Max Temperature 82 °F 75 °F 98 °F (1948)
Min Temperature 63 °F 49 °F 29 °F (1991)
Degree Days  
Heating Degree Days 0 5  
Month to date heating degree days 0 56  
Since 1 July heating degree days 5 71  
Cooling Degree Days 8 2  
Month to date cooling degree days 131 68  
Year to date cooling degree days 869 845  
Growing Degree Days 23 (Base 50)    
Moisture  
Dew Point 66 °F    
Average Humidity 87    
Maximum Humidity 100    
Minimum Humidity 62    
Precipitation  
Precipitation 0.06 in 0.09 in 2.78 in (1923)
Month to date precipitation 3.86 1.91  
Year to date precipitation 27.95 22.45  
Snow  
Snow 0.00 in 0.00 in 0.00 in ()
Month to date snowfall 0.0 0.0  
Since 1 July snowfall 0.0 0.0  
Since 1 September snowfall 0.0 0.0  
Snow Depth 0.00 in    
Sea Level Pressure  
Sea Level Pressure 29.97 in    
Wind  
Wind Speed 6 mph ()    
Max Wind Speed 20 mph    
Max Gust Speed 24 mph    
Visibility 9.8 miles    
Events Rain , Thunderstorm    
T = Trace of Precipitation, MM = Missing Value Source: Averaged Metar Reports

Daily Weather History Graph

Daily Weather History Graph

Search for Another Location

Airport or City:

Astronomy

Sep. 19, 2019 Rise Set
Actual Time 7:09 AM CDT 7:28 PM CDT
Civil Twilight 6:41 AM CDT 7:56 PM CDT
Nautical Twilight 6:08 AM CDT 8:29 PM CDT
Astronomical Twilight 5:34 AM CDT 9:03 PM CDT
Moon 10:32 PM CDT (9/19) 12:19 PM CDT (9/19)
Length of Visible Light 13h 15m
Length of Day
12h 18m
Waning Gibbous, 74% of the Moon is Illuminated
Sep 19
Waning Gibbous
Sep 21
Last Quarter
Sep 28
New
Oct 5
First Quarter
Oct 13
Full

Hourly Weather History & Observations

Time (CDT) Temp. Heat Index Dew Point Humidity Pressure Visibility Wind Dir Wind Speed Gust Speed Precip Events Conditions
12:52 AM 66.9 °F - 64.9 °F 93% 29.93 in 10.0 mi SSW 3.5 mph - 0.00 in   Partly Cloudy
1:26 AM 66.0 °F - 64.9 °F 96% 29.94 in 10.0 mi Calm Calm - N/A Thunderstorm Thunderstorm
1:41 AM 66.9 °F - 66.0 °F 97% 29.97 in 10.0 mi WSW 5.8 mph - N/A   Scattered Clouds
1:52 AM 66.9 °F - 64.9 °F 93% 29.96 in 10.0 mi South 6.9 mph - N/A   Partly Cloudy
2:13 AM 66.9 °F - 64.9 °F 93% 29.97 in 10.0 mi SSE 9.2 mph - 0.00 in Rain , Thunderstorm Light Rain
2:28 AM 66.9 °F - 64.0 °F 90% 30.01 in 10.0 mi SSW 10.4 mph - 0.00 in Rain Light Rain
2:52 AM 66.9 °F - 63.0 °F 87% 30.00 in 3.0 mi Calm Calm - 0.00 in Rain , Thunderstorm Light Rain
3:12 AM 66.9 °F - 64.0 °F 90% 30.02 in 10.0 mi East 4.6 mph - 0.01 in Rain , Thunderstorm Light Thunderstorms and Rain
3:27 AM 66.0 °F - 64.9 °F 96% 30.02 in 10.0 mi Calm Calm - 0.02 in Rain , Thunderstorm Light Rain
3:37 AM 66.0 °F - 64.9 °F 96% 30.01 in 8.0 mi SSW 3.5 mph - 0.02 in Rain , Thunderstorm Light Thunderstorms and Rain
3:52 AM 64.9 °F - 64.0 °F 97% 29.97 in 10.0 mi SE 9.2 mph - 0.03 in Rain , Thunderstorm Light Rain
4:23 AM 64.9 °F - 64.0 °F 97% 29.98 in 10.0 mi SE 3.5 mph - 0.00 in Rain Light Rain
4:52 AM 64.9 °F - 63.0 °F 93% 29.99 in 10.0 mi WNW 10.4 mph - 0.01 in Rain Light Rain
5:20 AM 64.9 °F - 63.0 °F 93% 30.03 in 10.0 mi WSW 9.2 mph - 0.00 in Rain , Thunderstorm Light Rain
5:30 AM 64.9 °F - 63.0 °F 93% 30.01 in 10.0 mi South 4.6 mph - 0.01 in Rain , Thunderstorm Light Thunderstorms and Rain
5:50 AM 64.4 °F - 62.6 °F 94% 30.00 in 10.0 mi SSE 6.9 mph - 0.01 in Rain , Thunderstorm Light Rain
5:52 AM 64.0 °F - 63.0 °F 96% 29.98 in 10.0 mi SSE 5.8 mph - 0.01 in Rain , Thunderstorm Light Rain
6:00 AM 64.0 °F - 63.0 °F 96% 30.00 in 10.0 mi South 6.9 mph - 0.00 in Rain Light Rain
6:52 AM 64.9 °F - 63.0 °F 93% 29.93 in 10.0 mi South 9.2 mph - 0.01 in   Clear
7:52 AM 64.0 °F - 63.0 °F 96% 29.95 in 10.0 mi Calm Calm - N/A   Partly Cloudy
8:52 AM 66.0 °F - 63.0 °F 90% 29.95 in 10.0 mi Calm Calm - N/A   Clear
9:52 AM 68.0 °F - 64.0 °F 87% 29.99 in 10.0 mi East 10.4 mph - N/A   Clear
10:52 AM 72.0 °F - 64.9 °F 78% 30.00 in 10.0 mi SE 11.5 mph - N/A   Partly Cloudy
11:52 AM 75.0 °F - 64.9 °F 71% 29.99 in 10.0 mi SSE 8.1 mph - N/A   Partly Cloudy
12:52 PM 79.0 °F - 66.9 °F 66% 29.98 in 10.0 mi SE 9.2 mph 18.4 mph N/A   Clear
1:52 PM 80.1 °F 82.3 °F 66.9 °F 64% 29.96 in 10.0 mi SE 10.4 mph - N/A   Clear
2:52 PM 81.0 °F 83.8 °F 68.0 °F 65% 29.94 in 10.0 mi SE 10.4 mph 17.3 mph N/A   Clear
3:52 PM 81.0 °F 84.4 °F 70.0 °F 69% 29.94 in 10.0 mi SSE 8.1 mph - N/A   Overcast
4:52 PM 82.0 °F 85.9 °F 70.0 °F 67% 29.92 in 10.0 mi SE 11.5 mph - N/A   Partly Cloudy
5:52 PM 80.1 °F 83.2 °F 70.0 °F 71% 29.91 in 10.0 mi SE 10.4 mph - N/A   Clear
6:52 PM 79.0 °F - 71.1 °F 77% 29.90 in 10.0 mi East 9.2 mph - N/A   Clear
7:52 PM 75.9 °F - 70.0 °F 82% 29.90 in 10.0 mi East 9.2 mph - N/A   Clear
8:52 PM 75.0 °F - 70.0 °F 84% 29.92 in 10.0 mi East 8.1 mph - N/A   Clear
9:52 PM 73.0 °F - 70.0 °F 90% 29.93 in 10.0 mi SE 9.2 mph - N/A   Clear
10:52 PM 72.0 °F - 70.0 °F 93% 29.92 in 10.0 mi SE 9.2 mph - N/A   Clear
11:52 PM 71.1 °F - 70.0 °F 96% 29.93 in 10.0 mi SE 9.2 mph - N/A   Clear